Weather History for Pontiac, MI

Change the Weather History Date:

Wednesday, August 27, 2014

  Actual Average Record
Temperature  
Mean Temperature 69 °F -  
Max Temperature 75 °F 76 °F 91 °F (2004)
Min Temperature 63 °F 57 °F 52 °F (2010)
Cooling Degree Days 4    
Growing Degree Days 19 (Base 50)    
Moisture  
Dew Point 59 °F    
Average Humidity 75    
Maximum Humidity 93    
Minimum Humidity 50    
Precipitation  
Precipitation 0.00 in - - ()
Sea Level Pressure  
Sea Level Pressure 30.10 in    
Wind  
Wind Speed 6 mph (North)    
Max Wind Speed 12 mph    
Max Gust Speed 17 mph    
Visibility 10 miles    
Events      
Averages and records for this station are not official NWS values.
T = Trace of Precipitation, MM = Missing Value Source: NWS Daily Summary

Daily Weather History Graph

Daily Weather History Graph

Search for Another Location

Airport:

Trip Planner

Search our weather history database for the weather conditions in past years. The results will help you decide how hot, cold, wet, or windy it might be!

Date:

Astronomy

Aug. 27, 2014 Rise Set
Actual Time 6:53 AM EDT 8:16 PM EDT
Civil Twilight 6:23 AM EDT 8:45 PM EDT
Nautical Twilight 5:48 AM EDT 9:21 PM EDT
Astronomical Twilight 5:10 AM EDT 9:58 PM EDT
Moon 8:51 AM EDT (8/27) 9:03 PM EDT (8/27)
Length of Visible Light 14h 22m
Length of Day
13h 23m
Waxing Crescent, 4% of the Moon is Illuminated
Aug 27
Waxing Crescent
Sep 2
First Quarter
Sep 8
Full
Sep 15
Last Quarter
Sep 24
New

Hourly Weather History & Observations

Time (EDT) Temp. Dew Point Humidity Pressure Visibility Wind Dir Wind Speed Gust Speed Precip Events Conditions
12:53 AM 69.8 °F 66.2 °F 88% 30.08 in 9.0 mi WNW 9.2 mph - N/A   Overcast
1:14 AM 70.0 °F 66.9 °F 90% 30.08 in 9.0 mi WNW 8.1 mph - N/A   Scattered Clouds
1:53 AM 69.1 °F 66.0 °F 90% 30.07 in 8.0 mi WNW 5.8 mph - N/A   Partly Cloudy
2:53 AM 68.0 °F 64.9 °F 90% 30.07 in 9.0 mi NW 4.6 mph - N/A   Mostly Cloudy
3:00 AM 68.0 °F 66.0 °F 93% 30.09 in 9.0 mi Calm Calm - N/A   Mostly Cloudy
3:49 AM 68.0 °F 64.4 °F 88% 30.08 in 9.0 mi WNW 4.6 mph - N/A   Overcast
3:53 AM 68.0 °F 64.9 °F 90% 30.06 in 9.0 mi NW 3.5 mph - N/A   Overcast
4:04 AM 68.0 °F 64.9 °F 90% 30.08 in 8.0 mi NNW 4.6 mph - N/A   Overcast
4:53 AM 66.0 °F 62.1 °F 87% 30.07 in 10.0 mi ENE 8.1 mph - N/A   Overcast
5:02 AM 66.0 °F 62.1 °F 87% 30.09 in 10.0 mi East 6.9 mph - N/A   Overcast
5:26 AM 64.4 °F 60.8 °F 88% 30.09 in 10.0 mi NE 4.6 mph - N/A   Overcast
5:39 AM 64.9 °F 61.0 °F 87% 30.10 in 10.0 mi NE 5.8 mph - N/A   Overcast
5:53 AM 64.9 °F 60.1 °F 84% 30.10 in 10.0 mi NNE 5.8 mph - N/A   Overcast
6:02 AM 64.9 °F 60.1 °F 84% 30.11 in 10.0 mi NNE 6.9 mph - N/A   Overcast
6:51 AM 64.4 °F 60.8 °F 88% 30.11 in 10.0 mi East 4.6 mph - N/A   Mostly Cloudy
6:53 AM 64.0 °F 60.1 °F 87% 30.10 in 10.0 mi ENE 4.6 mph - N/A   Mostly Cloudy
7:25 AM 64.0 °F 59.0 °F 84% 30.12 in 10.0 mi NE 4.6 mph - N/A   Mostly Cloudy
7:41 AM 64.0 °F 59.0 °F 84% 30.12 in 10.0 mi NE 5.8 mph - N/A   Mostly Cloudy
7:53 AM 63.0 °F 57.9 °F 84% 30.12 in 10.0 mi ENE 6.9 mph - N/A   Mostly Cloudy
8:53 AM 64.9 °F 57.0 °F 75% 30.12 in 10.0 mi NE 8.1 mph - N/A   Mostly Cloudy
9:53 AM 66.9 °F 55.9 °F 68% 30.13 in 10.0 mi NNE 5.8 mph - N/A   Mostly Cloudy
10:41 AM 68.0 °F 55.9 °F 65% 30.14 in 10.0 mi NE 4.6 mph - N/A   Mostly Cloudy
10:53 AM 68.0 °F 55.4 °F 64% 30.14 in 10.0 mi NNE 4.6 mph - N/A   Mostly Cloudy
11:00 AM 68.0 °F 55.9 °F 65% 30.14 in 10.0 mi Calm Calm - N/A   Mostly Cloudy
11:14 AM 69.1 °F 57.0 °F 65% 30.14 in 10.0 mi Calm Calm - N/A   Mostly Cloudy
11:53 AM 69.8 °F 57.2 °F 64% 30.13 in 10.0 mi WNW 3.5 mph - N/A   Mostly Cloudy
12:06 PM 72.0 °F 59.0 °F 64% 30.13 in 10.0 mi Variable 3.5 mph - N/A   Mostly Cloudy
12:53 PM 72.0 °F 57.9 °F 61% 30.11 in 10.0 mi NW 8.1 mph - N/A   Mostly Cloudy
1:53 PM 73.9 °F 57.9 °F 57% 30.11 in 10.0 mi WNW 6.9 mph - N/A   Mostly Cloudy
2:53 PM 75.2 °F 57.2 °F 53% 30.12 in 10.0 mi NW 11.5 mph 17.3 mph N/A   Mostly Cloudy
3:53 PM 73.9 °F 54.0 °F 50% 30.09 in 10.0 mi NNW 6.9 mph - N/A   Mostly Cloudy
4:53 PM 73.9 °F 55.0 °F 52% 30.09 in 10.0 mi North 8.1 mph - N/A   Mostly Cloudy
5:53 PM 73.9 °F 57.0 °F 55% 30.09 in 10.0 mi NW 9.2 mph - N/A   Mostly Cloudy
6:53 PM 72.0 °F 55.9 °F 57% 30.09 in 10.0 mi North 10.4 mph - N/A   Mostly Cloudy
7:53 PM 71.1 °F 55.9 °F 59% 30.08 in 10.0 mi North 8.1 mph - N/A   Mostly Cloudy
8:53 PM 68.0 °F 55.9 °F 65% 30.09 in 10.0 mi North 3.5 mph - N/A   Mostly Cloudy
9:53 PM 66.0 °F 57.9 °F 75% 30.10 in 10.0 mi NE 4.6 mph - N/A   Mostly Cloudy
10:53 PM 66.9 °F 57.0 °F 70% 30.11 in 10.0 mi ENE 4.6 mph - N/A   Mostly Cloudy
11:53 PM 64.0 °F 55.9 °F 75% 30.12 in 10.0 mi East 9.2 mph - N/A   Mostly Cloudy